SCP
0 0 0 0 0 0 0 0 0 0 0 0 0 0 0 0 0 0 0 0 0 0 0 0 0 0 0 0 0 0 0 0 0 0 0 0 0 0 0 0 0 0 0
0 0 0 0 0 0 0 0 0 0 0 0 0 0 0 0 0 0 0 0 0 0 0 0 0 0 0 0 0 0 0 0 0 0 0 0 0 0 0 0 0 0 0
0 0 0 0 0 0 0 0 0 0 0 0 0 0 0 0 0 0 0 0 0 0 0 0 0 0 0 0 0 0 0 0 0 0 0 0 0 0 0 0 0 0 0
0 0 0 0 0 0 0 0 0 0 0 0 0 0 0 0 0 0 0 0 0 0 0 0 0 0 0 0 0 0 0 0 0 0 0 0 0 0 0 0 0 0 0
0 0 0 0 0 0 0 0 0 0 0 0 0 0 0 0 0 0 0 0 0 0 0 0 0 0 0 0 0 0 0 0 0 0 0 0 0 0 0 0 0 0 0
0 0 0 0 0 0 0 0 0 0 0 0 0 0 0 0 0 0 0 0 0 0 0 0 0 0 0 0 0 0 0 0 0 0 0 0 0 0 0 0 0 0 0
0 0 0 0 0 0 0 0 0 0 0 0 0 0 0 0 0 0 0 0 0 0 0 0 0 0 0 0 0 0 0 0 0 0 0 0 0 0 0 0 0 0 0
0 0 0 0 0 0 0 0 0 0 0 0 0 0 0 0 0 0 0 0 0 0 0 0 0 0 0 0 0 0 0 0 0 0 0 0 0 0 0 0 0 0 0
0 0 0 0 0 0 0 0 0 0 0 0 0 0 0 0 0 0 0 0 0 0 0 0 0 0 0 0 0 0 0 0 0 0 0 0 0 0 0 0 0 0 0
0 0 0 0 0 0 0 0 0 0 0 0 0 0 0 0 0 0 0 0 0 0 0 0 0 0 0 0 0 0 0 0 0 0 0 0 0 0 0 0 0 0 0
0 0 0 0 0 0 0 0 0 0 0 0 0 0 0 0 0 0 0 0 0 0 0 0 0 0 0 0 0 0 0 0 0 0 0 0 0 0 0 0 0 0 0
0 0 0 0 0 0 0 0 0 0 0 0 0 0 0 0 0 0 0 0 0 0 0 0 0 0 0 0 0 0 0 0 0 0 0 0 0 0 0 0 0 0 0
0 0 0 0 0 0 0 0 0 0 0 0 0 0 0 0 0 0 0 0 0 0 0 0 0 0 0 0 0 0 0 0 0 0 0 0 0 0 0 0 0 0 0
0 0 0 0 0 0 0 0 0 0 0 0 0 0 0 0 0 0 0 0 0 0 0 0 0 0 0 0 0 0 0 0 0 0 0 0 0 0 0 0 0 0 0
0 0 0 0 0 0 0 0 0 0 0 0 0 0 0 0 0 0 0 0 0 0 0 0 0 0 0 0 0 0 0 0 0 0 0 0 0 0 0 0 0 0 0
0 0 0 0 0 0 0 0 0 0 0 0 0 0 0 0 0 0 0 0 0 0 0 0 0 0 0 0 0 0 0 0 0 0 0 0 0 0 0 0 0 0 0
0 0 0 0 0 0 0 0 0 0 0 0 0 0 0 0 0 0 0 0 0 0 0 0 0 0 0 0 0 0 0 0 0 0 0 0 0 0 0 0 0 0 0
0 0 0 0 0 0 0 0 0 0 0 0 0 0 0 0 0 0 0 0 0 0 0 0 0 0 0 0 0 0 0 0 0 0 0 0 0 0 0 0 0 0 0
0 0 0 0 0 0 0 0 0 0 0 0 0 0 0 0 0 0 0 0 0 0 0 0 0 0 0 0 0 0 0 0 0 0 0 0 0 0 0 0 0 0 0
0 0 0 0 0 0 0 0 0 0 0 0 0 0 0 0 0 0 0 0 0 0 0 0 0 0 0 0 0 0 0 0 0 0 0 0 0 0 0 0 0 0 0
0 0 0 0 0 0 0 0 0 0 0 0 0 0 0 0 0 0 0 0 0 0 0 0 0 0 0 0 0 0 0 0 0 0 0 0 0 0 0 0 0 0 0
0 0 0 0 0 0 0 0 0 0 0 0 0 0 0 0 0 0 0 0 0 0 0 0 0 0 0 0 0 0 0 0 0 0 0 0 0 0 0 0 0 0 0
0 0 0 0 0 0 0 0 0 0 0 0 0 0 0 0 0 0 0 0 0 0 0 0 0 0 0 0 0 0 0 0 0 0 0 0 0 0 0 0 0 0 0
0 0 0 0 0 0 0 0 0 0 0 0 0 0 0 0 0 0 0 0 0 0 0 0 0 0 0 0 0 0 0 0 0 0 0 0 0 0 0 0 0 0 0
0 0 0 0 0 0 0 0 0 0 0 0 0 0 0 0 0 0 0 0 0 0 0 0 0 0 0 0 0 0 0 0 0 0 0 0 0 0 0 0 0 0 0
0 0 0 0 0 0 0 0 0 0 0 0 0 0 0 0 0 0 0 0 0 0 0 0 0 0 0 0 0 0 0 0 0 0 0 0 0 0 0 0 0 0 0
Wind_Speed
2 2 2 2 2 2 3 3 3 4 3 3 3 3 3 3 2 2 3 4 4 5 5 5 6 6 6 7 7 7 7 6 6 6 6 6 6 6 6 6 6 6 6
2 2 2 2 2 2 3 4 4 4 3 2 2 2 3 2 2 2 2 4 4 4 5 5 5 6 7 7 6 6 6 6 5 5 5 5 5 4 4 4 4 4 4
2 2 2 2 2 2 3 3 4 3 3 3 3 2 2 2 2 2 2 2 3 4 3 4 5 5 6 6 6 5 5 5 4 4 4 4 3 3 3 3 3 3 3
2 2 2 2 2 2 2 3 4 4 3 3 2 2 2 2 2 2 2 2 2 2 3 4 4 5 4 4 4 4 4 4 4 3 3 3 2 1 1 1 1 1 1
3 2 2 2 3 3 3 3 3 3 3 3 2 1 1 1 1 1 2 2 1 1 2 3 4 3 4 3 3 4 3 3 3 3 3 2 2 1 1 0 0 1 1
3 2 2 3 3 2 2 3 3 3 3 3 2 2 1 1 1 1 2 1 1 2 2 2 2 2 3 3 3 3 3 3 3 3 3 2 2 2 2 2 2 2 2
3 3 3 3 3 3 3 4 3 4 3 3 2 2 1 1 1 1 1 1 2 1 1 1 1 1 1 2 2 2 3 3 3 3 4 3 3 3 4 3 3 3 4
3 3 4 3 3 3 4 4 4 3 3 2 2 2 2 2 2 1 1 1 2 1 1 1 1 1 1 1 1 1 2 3 3 4 4 4 4 5 5 5 5 5 5
3 3 4 4 4 4 3 4 4 4 4 3 2 2 2 2 1 2 2 2 2 2 2 1 2 2 2 1 1 1 1 3 4 4 5 5 5 6 6 6 6 6 6
3 3 4 4 4 3 4 4 4 3 4 3 2 1 1 0 2 1 2 2 2 3 3 2 3 3 2 2 1 1 1 3 5 5 6 7 7 7 7 7 7 7 7
3 3 4 4 4 3 4 5 4 4 4 4 3 2 1 1 2 2 3 3 3 3 3 3 3 3 3 2 2 2 2 4 5 6 7 7 8 8 8 8 9 9 8
2 3 4 4 4 3 4 5 5 5 4 4 3 3 2 2 2 2 3 3 3 3 3 3 4 3 3 2 2 2 3 4 5 7 7 7 7 8 8 9 10 10 10
2 3 3 3 3 3 4 4 4 5 5 5 4 3 3 2 2 2 3 3 3 2 3 4 4 3 3 3 2 2 4 5 6 7 8 8 8 8 8 9 10 10 10
3 3 3 3 4 3 4 4 4 4 4 5 5 4 3 2 2 3 3 3 3 3 4 4 3 4 3 3 2 4 5 6 6 8 9 9 8 8 9 9 10 11 11
3 4 4 4 4 4 4 4 3 4 4 4 4 4 3 3 2 2 3 3 4 4 4 4 3 4 3 3 3 5 5 5 7 8 10 9 9 9 10 10 10 11 11
3 4 4 4 4 4 4 4 4 4 5 4 3 4 4 3 3 3 3 3 4 5 5 3 3 3 4 4 5 6 6 6 8 9 10 10 10 10 11 11 11 11 11
3 4 4 4 4 4 4 4 4 4 5 4 4 5 5 4 3 3 3 4 4 4 6 4 3 3 5 6 5 5 5 6 5 9 11 11 11 12 12 12 12 12 12
3 4 4 4 4 4 4 5 5 5 5 5 5 5 5 4 5 4 4 4 4 5 5 6 4 4 6 6 6 6 5 5 6 8 11 12 12 12 12 12 12 12 12
3 3 3 4 4 4 4 5 5 5 5 6 6 6 6 6 6 4 5 4 4 4 5 5 5 4 4 4 5 5 6 6 6 6 9 11 12 12 12 12 12 12 12
3 3 4 4 4 4 4 4 5 5 5 5 5 6 6 7 7 6 5 5 5 5 5 5 5 4 4 4 5 5 5 5 5 5 7 8 10 12 13 13 12 11 11
3 3 3 3 4 4 4 4 4 5 5 5 6 6 7 7 7 7 5 6 6 5 5 5 5 4 5 4 5 4 5 5 6 4 5 5 6 6 7 9 10 10 11
3 3 3 4 4 3 4 6 5 5 5 6 6 6 6 6 7 9 10 10 9 8 7 6 6 6 7 6 5 5 5 5 5 3 5 6 5 7 6 6 8 10 11
3 3 3 4 5 4 5 6 6 5 5 6 6 6 5 5 7 7 8 10 10 11 11 9 9 8 8 7 6 6 6 6 6 4 5 6 5 7 6 6 9 10 10
3 3 3 4 4 4 5 6 6 6 5 6 6 7 7 7 7 7 7 7 8 8 9 8 9 9 8 6 6 7 7 6 5 4 5 5 4 5 5 5 7 9 9
3 3 3 3 4 4 5 6 5 4 4 6 6 6 7 7 8 8 7 7 8 7 7 9 10 9 9 9 7 4 4 5 5 4 3 4 4 4 5 5 4 7 8
3 2 3 3 4 4 3 5 5 3 4 4 5 5 7 8 8 8 7 7 8 7 5 6 7 7 7 7 8 7 5 5 4 4 3 3 3 3 3 3 3 3 4
Wind_Direction
184 178 165 165 178 169 163 158 159 151 144 141 149 151 148 146 149 143 117 100 120 127 129 136 136 135 135 130 127 122 117 113 113 108 100 93 94 90 85 83 77 72 68
190 181 175 166 171 175 168 163 159 151 141 138 139 140 142 147 142 136 129 112 102 112 123 132 137 134 132 131 130 130 127 124 121 118 111 101 91 92 91 87 80 74 65
185 180 182 170 168 165 162 158 153 148 136 135 139 139 137 140 143 141 133 129 124 104 113 130 137 135 131 131 133 136 135 134 132 130 122 117 108 94 101 95 82 72 60
185 180 178 175 164 168 163 164 157 149 146 149 145 136 127 129 149 147 145 143 137 127 104 101 125 138 137 139 143 147 147 145 144 143 137 131 139 128 88 98 102 70 39
179 178 175 166 163 166 165 167 163 155 153 148 142 129 117 133 142 154 150 139 141 143 129 103 105 119 136 149 157 161 161 162 163 161 164 161 160 169 210 311 7 279 296
177 174 169 165 160 157 159 164 159 146 148 143 130 116 102 128 152 162 169 163 169 163 155 148 136 116 121 150 175 183 185 184 184 184 191 196 196 210 230 252 284 315 303
184 180 173 163 163 165 162 161 161 146 139 143 144 132 123 140 152 156 173 181 173 165 155 155 145 143 133 130 161 193 209 208 209 212 215 225 226 236 246 254 266 284 299
193 187 177 169 168 162 159 161 167 160 158 174 177 173 180 182 176 190 200 206 198 178 178 179 173 188 196 209 117 186 233 238 235 234 234 239 239 244 247 256 265 276 281
191 182 183 175 173 171 169 173 178 176 171 184 200 205 205 208 171 194 219 223 218 216 208 207 212 215 211 224 218 186 262 269 256 255 248 247 247 249 251 256 261 266 273
186 177 181 177 178 178 177 177 180 188 178 179 188 236 267 253 206 195 202 214 232 243 233 228 230 225 226 234 239 261 300 285 264 265 261 257 256 256 256 258 260 265 271
179 174 174 175 179 182 183 180 176 188 193 191 191 187 180 210 230 230 224 213 226 234 240 237 235 235 237 240 242 244 261 265 264 265 265 264 263 262 262 262 263 263 265
175 173 175 177 184 190 191 187 179 188 198 196 196 194 200 207 214 230 240 232 239 236 242 245 239 236 233 238 258 284 266 261 265 267 267 269 270 270 270 269 265 266 265
188 187 181 182 188 199 197 193 188 192 199 201 203 207 213 227 224 233 236 243 255 255 239 237 235 235 234 238 239 291 265 262 265 269 269 271 273 275 279 279 274 271 270
195 192 189 190 192 198 199 197 196 198 202 206 210 212 215 220 222 228 230 234 248 248 237 236 230 230 230 240 253 267 262 256 262 270 274 274 276 277 276 277 277 274 273
193 187 187 194 194 196 199 199 202 202 205 211 214 217 221 224 230 232 233 234 238 249 245 232 232 224 236 252 250 256 263 261 262 265 272 275 274 272 269 270 273 275 274
196 188 189 191 192 194 195 196 199 204 206 210 216 221 226 228 226 225 228 239 246 254 256 243 250 254 254 258 253 260 261 266 265 262 264 269 268 265 265 267 268 269 271
197 197 191 191 191 195 196 200 203 205 211 213 217 223 229 233 231 229 229 232 239 248 256 265 264 261 255 257 257 260 260 257 256 258 258 261 263 262 262 264 266 266 268
196 198 192 190 192 198 203 203 204 207 215 219 220 224 231 233 234 235 234 236 240 246 255 264 264 260 262 260 261 262 263 262 260 259 258 258 258 260 262 262 263 264 265
192 193 193 197 202 204 211 215 213 212 218 225 226 227 229 231 233 235 237 241 243 248 253 257 264 267 270 262 265 265 263 262 263 260 260 259 258 259 260 260 260 261 261
189 192 196 202 208 212 213 216 220 221 225 231 234 234 233 233 235 235 238 241 243 244 245 251 260 265 266 267 263 262 265 262 266 266 260 263 263 259 256 258 257 257 259
198 200 203 208 211 215 215 219 223 228 231 235 240 241 240 241 246 244 243 239 238 241 243 248 255 260 258 258 257 260 266 273 272 263 265 262 265 262 255 253 253 255 257
203 207 211 215 217 219 219 230 235 234 236 239 245 249 251 246 245 247 248 246 242 242 242 247 254 254 258 259 258 258 265 272 274 252 267 271 268 264 260 258 257 259 258
203 212 216 221 227 225 223 232 239 242 238 242 247 249 250 248 248 245 247 247 246 247 247 249 252 255 259 255 254 256 254 262 269 275 270 269 266 267 268 265 261 259 260
211 216 221 230 237 235 230 234 240 242 243 245 246 246 247 247 244 248 249 248 249 248 248 247 252 257 259 258 250 253 261 268 280 267 254 264 270 276 282 273 257 254 257
216 221 225 234 243 246 237 238 242 243 244 250 252 252 252 252 252 254 252 252 255 254 251 252 258 262 261 257 250 250 250 255 268 264 248 260 274 285 283 277 266 254 258
217 220 232 239 246 253 251 247 249 244 248 255 258 256 255 259 261 256 253 250 252 255 255 255 254 254 255 246 236 237 240 247 263 262 230 241 265 282 280 274 282 276 264